SCP
0 0 0 0 0 0 0 0 0 0 0 0 0 0 0 0 0 0 0 0 0 0 0 0 0 0 0 0 0 0 0 0 0 0 0 0 0 0 0 0 0 0 0
0 0 0 0 0 0 0 0 0 0 0 0 0 0 0 0 0 0 0 0 0 0 0 0 0 0 0 0 0 0 0 0 0 0 0 0 0 0 0 0 0 0 0
0 0 0 0 0 0 0 0 0 0 0 0 0 0 0 0 0 0 0 0 0 0 0 0 0 0 0 0 0 0 0 0 0 0 0 0 0 0 0 0 0 0 0
0 0 0 0 0 0 0 0 0 0 0 0 0 0 0 0 0 0 0 0 0 0 0 0 0 0 0 0 0 0 0 0 0 0 0 0 0 0 0 0 0 0 0
0 0 0 0 0 0 0 0 0 0 0 0 0 0 0 0 0 0 0 0 0 0 0 0 0 0 0 0 0 0 0 0 0 0 0 0 0 0 0 0 0 0 0
0 0 0 0 0 0 0 0 0 0 0 0 0 0 0 0 0 0 0 0 0 0 0 0 0 0 0 0 0 0 0 0 0 0 0 0 0 0 0 0 0 0 0
0 0 0 0 0 0 0 0 0 0 0 0 0 0 0 0 0 0 0 0 0 0 0 0 0 0 0 0 0 0 0 0 0 0 0 0 0 0 0 0 0 0 0
0 0 0 0 0 0 0 0 0 0 0 0 0 0 0 0 0 0 0 0 0 0 0 0 0 0 0 0 0 0 0 0 0 0 0 0 0 0 0 0 0 0 0
0 0 0 0 0 0 0 0 0 0 0 0 0 0 0 0 0 0 0 0 0 0 0 0 0 0 0 0 0 0 0 0 0 0 0 0 0 0 0 0 0 0 0
0 0 0 0 0 0 0 0 0 0 0 0 0 0 0 0 0 0 0 0 0 0 0 0 0 0 0 0 0 0 0 0 0 0 0 0 0 0 0 0 0 0 0
0 0 0 0 0 0 0 0 0 0 0 0 0 0 0 0 0 0 0 0 0 0 0 0 0 0 0 0 0 0 0 0 0 0 0 0 0 0 0 0 0 0 0
0 0 0 0 0 0 0 0 0 0 0 0 0 0 0 0 0 0 0 0 0 0 0 0 0 0 0 0 0 0 0 0 0 0 0 0 0 0 0 0 0 0 0
0 0 0 0 0 0 0 0 0 0 0 0 0 0 0 0 0 0 0 0 0 0 0 0 0 0 0 0 0 0 0 0 0 0 0 0 0 0 0 0 0 0 0
0 0 0 0 0 0 0 0 0 0 0 0 0 0 0 0 0 0 0 0 0 0 0 0 0 0 0 0 0 0 0 0 0 0 0 0 0 0 0 0 0 0 0
0 0 0 0 0 0 0 0 0 0 0 0 0 0 0 0 0 0 0 0 0 0 0 0 0 0 0 0 0 0 0 0 0 0 0 0 0 0 0 0 0 0 0
0 0 0 0 0 0 0 0 0 0 0 0 0 0 0 0 0 0 0 0 0 0 0 0 0 0 0 0 0 0 0 0 0 0 0 0 0 0 0 0 0 0 0
0 0 0 0 0 0 0 0 0 0 0 0 0 0 0 0 0 0 0 0 0 0 0 0 0 0 0 0 0 0 0 0 0 0 0 0 0 0 0 0 0 0 0
0 0 0 0 0 0 0 0 0 0 0 0 0 0 0 0 0 0 0 0 0 0 0 0 0 0 0 0 0 0 0 0 0 0 0 0 0 0 0 0 0 0 0
0 0 0 0 0 0 0 0 0 0 0 0 0 0 0 0 0 0 0 0 0 0 0 0 0 0 0 0 0 0 0 0 0 0 0 0 0 0 0 0 0 0 0
0 0 0 0 0 0 0 0 0 0 0 0 0 0 0 0 0 0 0 0 0 0 0 0 0 0 0 0 0 0 0 0 0 0 0 0 0 0 0 0 0 0 0
0 0 0 0 0 0 0 0 0 0 0 0 0 0 0 0 0 0 0 0 0 0 0 0 0 0 0 0 0 0 0 0 0 0 0 0 0 0 0 0 0 0 0
0 0 0 0 0 0 0 0 0 0 0 0 0 0 0 0 0 0 0 0 0 0 0 0 0 0 0 0 0 0 0 0 0 0 0 0 0 0 0 0 0 0 0
0 0 0 0 0 0 0 0 0 0 0 0 0 0 0 0 0 0 0 0 0 0 0 0 0 0 0 0 0 0 0 0 0 0 0 0 0 0 0 0 0 0 0
0 0 0 0 0 0 0 0 0 0 0 0 0 0 0 0 0 0 0 0 0 0 0 0 0 0 0 0 0 0 0 0 0 0 0 0 0 0 0 0 0 0 0
0 0 0 0 0 0 0 0 0 0 0 0 0 0 0 0 0 0 0 0 0 0 0 0 0 0 0 0 0 0 0 0 0 0 0 0 0 0 0 0 0 0 0
0 0 0 0 0 0 0 0 0 0 0 0 0 0 0 0 0 0 0 0 0 0 0 0 0 0 0 0 0 0 0 0 0 0 0 0 0 0 0 0 0 0 0
Wind_Speed
9 11 11 10 9 8 8 7 7 7 6 6 5 4 3 3 3 2 3 3 4 4 5 5 5 5 5 5 6 6 6 5 5 4 3 3 3 4 4 5 5 4 7
12 12 11 10 9 8 7 7 6 6 6 5 4 3 2 2 2 2 3 3 3 4 4 4 4 4 4 4 5 5 5 5 5 4 3 2 1 2 4 5 6 5 6
13 12 10 10 9 8 7 7 6 5 5 5 4 3 3 2 3 3 3 3 3 4 4 4 4 3 4 4 4 5 5 5 6 6 6 2 2 3 4 5 6 6 6
12 10 10 10 9 8 8 7 7 6 5 5 5 4 3 3 3 3 3 4 4 4 4 4 4 4 4 3 4 4 5 5 7 8 4 1 2 6 5 4 5 5 6
11 11 11 10 9 8 8 7 6 6 6 5 5 4 3 3 3 4 4 4 4 5 5 5 5 4 4 4 4 4 4 6 8 8 3 1 4 5 5 4 4 5 5
11 11 10 9 8 7 7 6 6 5 5 5 4 4 3 3 3 4 4 4 5 5 5 5 5 5 5 4 4 4 4 6 8 5 2 2 4 5 5 4 4 4 5
9 10 10 9 8 7 6 6 5 5 5 4 4 4 3 3 4 4 4 5 5 5 5 5 4 5 5 5 4 5 5 6 6 5 1 2 4 6 5 4 3 3 4
8 9 10 10 9 7 7 6 5 4 3 3 3 3 3 3 4 4 4 4 4 4 5 5 5 5 5 5 5 5 6 7 6 6 1 3 7 7 5 4 3 3 4
6 6 8 8 8 8 7 6 4 2 0 1 2 3 4 5 6 6 5 4 4 4 4 5 5 5 5 5 6 6 6 6 5 5 3 3 7 7 5 4 3 3 3
6 5 5 5 5 5 6 7 5 4 4 4 5 6 7 8 9 9 6 4 4 5 5 5 5 5 6 6 6 7 7 6 5 5 1 4 8 7 5 4 3 3 3
4 3 4 3 3 3 4 6 6 6 6 6 6 9 8 5 4 5 4 4 5 6 7 6 6 7 7 7 7 7 6 3 5 3 1 6 8 7 5 4 4 4 4
4 2 3 3 2 1 1 3 2 2 3 3 1 2 2 2 2 2 2 5 7 8 9 9 9 8 6 4 5 7 3 4 4 3 3 8 7 6 5 4 4 5 5
4 3 3 2 2 1 1 1 0 0 1 0 2 2 2 2 2 1 0 2 4 6 4 4 6 4 3 2 3 3 4 3 2 2 4 7 7 6 5 4 5 6 6
5 4 3 3 2 2 2 1 1 1 1 1 2 3 2 1 2 2 1 1 1 1 1 1 2 3 3 3 3 4 4 2 2 1 3 7 7 6 6 5 6 7 7
5 5 3 1 2 2 2 1 1 2 2 2 1 3 2 1 2 2 1 1 1 1 1 1 2 3 2 3 2 2 3 3 3 2 3 6 7 7 6 6 7 8 8
4 4 3 2 3 3 2 3 3 2 1 1 2 3 3 2 2 2 2 1 1 1 1 2 2 2 2 2 3 3 3 3 3 3 3 5 7 8 8 7 7 9 9
4 4 4 2 3 4 4 4 3 2 2 2 2 3 3 2 2 2 2 2 2 2 2 2 2 1 2 2 3 4 3 3 3 3 3 4 4 7 8 8 8 9 10
4 4 5 3 3 4 4 3 3 3 3 2 2 2 4 4 4 2 2 2 3 2 2 2 1 1 2 2 2 3 3 2 3 3 3 3 3 4 6 8 8 9 10
4 4 4 5 3 4 2 1 1 2 2 2 3 3 4 4 4 3 2 2 3 2 2 3 2 1 1 2 3 3 2 2 2 3 3 3 3 4 4 6 8 9 9
4 3 4 5 3 3 1 2 2 2 2 2 2 3 4 3 4 3 2 2 2 1 1 2 2 2 2 2 3 2 2 2 2 2 2 2 2 3 5 6 5 5 8
4 3 4 3 3 3 2 2 2 2 2 2 2 3 3 4 4 3 3 2 1 1 1 2 2 2 2 1 1 2 2 1 1 1 1 1 1 2 3 5 4 4 4
4 4 3 3 4 4 2 1 0 1 1 1 1 1 3 3 4 4 3 3 2 1 1 2 1 1 2 1 0 1 1 2 2 1 1 1 1 1 2 4 4 5 5
4 4 3 3 4 4 2 1 2 1 2 1 1 1 2 2 2 2 3 3 3 2 1 2 1 1 1 2 0 1 1 1 1 1 1 1 1 1 1 2 3 4 5
5 5 3 3 3 3 2 2 1 1 1 2 2 1 2 1 1 2 2 3 2 1 1 2 1 1 1 1 1 1 0 0 1 0 1 0 1 1 1 1 1 1 3
6 5 3 3 3 3 2 2 0 1 1 1 2 2 2 1 1 1 2 2 2 1 1 1 1 1 1 1 1 1 1 1 1 1 0 0 1 0 1 1 1 1 2
6 5 3 3 3 2 0 1 1 1 1 2 2 2 2 1 1 2 2 2 2 1 1 1 1 1 1 1 1 0 0 0 0 0 0 0 0 1 0 1 1 1 2
Wind_Direction
112 113 113 108 103 98 93 89 85 78 72 67 67 71 70 53 38 23 24 24 15 16 20 16 10 11 13 16 13 9 7 7 6 7 11 23 38 44 44 35 34 65 66
115 112 108 104 100 96 92 86 80 74 69 64 58 53 51 41 28 16 10 2 358 357 359 356 359 1 4 10 4 360 358 354 347 339 326 321 68 68 61 48 49 65 60
110 111 106 99 95 91 89 85 76 67 63 56 47 37 25 13 4 351 343 338 338 334 334 332 332 337 347 358 354 348 348 340 331 318 298 272 151 107 82 62 61 64 59
108 109 103 98 92 86 81 75 68 60 54 48 42 36 25 10 354 338 327 323 324 323 320 321 318 316 320 332 332 331 332 325 317 309 295 263 121 107 91 71 65 68 64
102 101 100 98 92 85 79 74 66 58 51 43 34 26 19 14 1 347 337 326 323 317 314 315 315 307 298 297 301 306 315 315 311 300 302 67 93 106 97 80 74 80 77
106 106 106 101 95 90 83 75 65 54 47 39 28 18 9 1 357 344 332 321 314 310 310 308 302 296 288 282 287 293 299 304 304 291 281 110 113 115 104 88 79 90 90
111 116 119 115 109 101 95 83 68 52 43 36 24 11 358 339 327 320 314 310 308 306 308 309 299 285 272 268 273 280 286 293 281 283 291 120 123 121 112 101 91 97 98
117 122 126 132 129 121 110 98 79 56 37 21 9 357 336 316 301 297 295 293 295 299 301 300 292 280 270 262 262 266 273 282 287 293 261 131 131 128 123 118 110 106 111
114 121 136 148 149 146 135 127 118 112 67 308 298 294 288 283 275 269 267 271 282 283 287 287 284 276 267 262 260 258 261 268 283 279 271 130 137 134 135 133 128 123 124
129 128 131 137 138 150 157 159 162 179 212 240 249 255 261 266 258 247 244 240 259 269 271 272 273 270 264 258 255 256 254 262 259 263 227 140 139 141 144 148 150 143 142
116 117 121 114 114 149 169 155 180 199 214 235 238 240 251 259 254 231 211 205 236 253 257 257 260 261 257 247 239 242 244 240 255 248 161 138 143 145 151 161 166 153 151
126 99 86 91 102 86 22 124 183 196 196 233 251 239 250 285 295 301 174 218 238 246 248 246 252 257 250 237 225 224 230 238 255 235 158 151 149 154 163 170 174 167 159
111 86 64 47 69 59 75 55 318 252 197 289 359 336 335 336 325 308 220 217 244 249 246 245 245 248 236 219 204 203 220 236 243 234 156 158 158 164 175 179 180 174 170
105 92 55 18 19 27 53 29 301 6 26 23 359 350 359 354 327 325 334 329 282 280 268 258 250 255 254 252 225 210 217 225 237 188 163 170 171 176 186 192 185 178 176
123 124 101 6 11 27 56 322 17 33 16 359 27 337 347 4 321 333 315 324 308 303 297 286 271 271 267 265 264 238 235 235 238 215 174 182 178 185 195 198 192 184 180
115 112 100 58 27 19 35 26 23 20 334 6 31 331 347 356 333 331 325 329 307 292 285 280 282 278 270 271 274 258 229 230 233 230 181 189 190 191 199 203 198 190 185
111 106 94 62 37 31 39 25 10 348 14 24 13 342 346 346 333 347 354 333 315 323 322 312 307 309 290 277 269 260 238 224 226 236 207 194 190 195 198 203 200 192 186
103 93 93 72 45 47 42 19 354 11 18 0 6 7 351 350 349 2 356 325 322 340 331 304 302 319 305 291 277 257 240 213 229 236 228 202 185 182 194 199 196 189 185
100 91 102 90 58 64 42 333 6 21 13 359 18 18 358 349 348 352 340 329 328 344 342 317 326 298 291 289 280 260 247 200 230 244 230 203 197 171 173 190 190 184 183
120 111 94 94 79 78 53 4 32 19 1 16 27 19 1 345 349 344 331 329 334 350 338 313 318 314 293 288 293 290 259 220 209 223 236 211 189 182 171 172 175 183 182
137 113 101 110 102 85 47 11 13 3 357 9 19 20 357 354 347 334 329 320 327 319 300 306 311 307 295 293 318 317 306 278 227 197 208 200 184 186 162 163 168 165 172
135 120 116 110 100 92 80 354 327 23 330 11 355 16 6 358 354 342 343 335 325 308 315 300 299 313 307 314 4 356 325 347 332 233 193 201 172 158 168 177 175 163 164
135 119 107 107 110 104 110 44 11 9 316 344 349 16 356 339 341 328 328 324 320 324 294 281 271 269 292 302 330 146 153 214 308 291 230 194 159 146 154 178 177 170 166
137 126 142 132 117 117 122 82 6 335 343 3 358 349 323 352 344 335 324 314 307 303 301 298 303 261 245 287 308 318 292 175 148 290 319 292 179 134 132 163 138 149 160
137 133 142 129 118 108 98 122 248 355 353 348 339 333 325 334 311 319 316 303 297 286 292 301 300 275 218 231 264 301 318 328 281 148 214 300 14 27 126 136 120 123 143
132 133 143 136 120 112 142 180 170 83 342 331 334 336 319 307 309 343 326 315 322 334 344 322 303 271 226 240 256 249 207 190 278 101 158 246 254 275 190 138 134 135 146